Location: Unspecified
(0.0000°N, 0.0000°E)
Time: 17:24:48
(UTC+00:00)

Hubble Space Telescope - Pass Details

Date: 23 January 2020
Orbit: 536 x 540 km, 28.5° (Epoch: 23 January)

Event Time Altitude Azimuth Distance (km) Brightness Sun altitude
Exits shadow 05:02:09 - 226° (SW) 1,932 3.3 -16.3°
Reaches altitude 10° 05:02:33 10° 225° (SW) 1,779 3.2 -16.2°
Maximum altitude 05:06:32 48° 150° (SSE) 701 1.7 -15.3°
Drops below altitude 10° 05:10:30 10° 75° (ENE) 1,776 4.3 -14.4°
Sets 05:12:49 0° 69° (ENE) 2,665 5.1 -13.8°
